EW0395 Weather Reports


Display with metric or nautical units.
time (UTC)temp
F
wind
direction
speed
MPH
gust
MPH
rain 1hr
in
rain 24hr
in
rain mn
in
humidity
%
barometer
mb
20260903033038 61 0 0.0 0.0 0.00 0.00 0.00 88 1019.1
20260903031536 61 0 0.0 0.0 0.00 0.00 0.00 87 1019.2
20260903030043 61 0 0.0 0.0 0.00 0.00 0.00 87 1019.2
20260903024542 61 0 0.0 0.0 0.00 0.00 0.00 87 1019.7
20260903023039 61 0 0.0 0.0 0.00 0.00 0.00 86 1019.5
20260903021540 61 0 0.0 0.0 0.00 0.00 0.00 85 1019.7
20260903020040 61 0 0.0 0.0 0.00 0.00 0.00 85 1019.8
20260903014543 61 0 0.0 0.0 0.00 0.00 0.00 84 1020.3
20260903013036 61 0 0.0 0.0 0.00 0.00 0.00 84 1020.2
20260903011542 62 0 0.0 0.0 0.00 0.00 0.00 85 1020.1
20260903010047 62 0 0.0 0.0 0.00 0.00 0.00 87 1020.1
20260903004535 62 0 0.0 0.0 0.00 0.00 0.00 85 1019.9
20260903003036 62 0 0.0 0.0 0.00 0.00 0.00 86 1019.5
20260903001538 62 0 0.0 0.0 0.00 0.00 0.00 87 1019.2
20260903000038 62 0 0.0 0.0 0.00 0.00 0.00 88 1019.6
20260902234539 62 0 0.0 0.0 0.00 0.00 0.00 88 1019.5
20260902233041 63 0 0.0 0.0 0.00 0.00 0.00 88 1020.0
20260902231546 63 0 0.0 0.0 0.00 0.00 0.00 88 1020.3
20260902230038 63 0 0.0 0.0 0.00 0.00 0.00 89 1020.8
20260902224540 63 0 0.0 0.0 0.00 0.00 0.00 89 1021.0
20260902223039 63 0 0.0 0.0 0.00 0.00 0.00 88 1021.3
20260902221538 64 0 0.0 0.0 0.00 0.00 0.00 88 1021.4
20260902220048 64 0 0.0 0.0 0.00 0.00 0.00 89 1021.1
20260902214538 64 0 0.0 0.0 0.00 0.00 0.00 89 1021.3
20260902213037 64 0 0.0 0.0 0.00 0.00 0.00 88 1021.3
20260902211539 64 0 0.0 0.0 0.00 0.00 0.00 88 1021.6
20260902210047 64 0 0.0 0.0 0.00 0.00 0.00 88 1021.4
20260902204543 64 0 0.0 0.0 0.00 0.00 0.00 87 1021.6
20260902203037 64 0 0.0 0.0 0.00 0.00 0.00 87 1021.7
20260902201543 65 0 0.0 0.0 0.00 0.00 0.00 86 1021.7
20260902200045 65 0 0.0 0.0 0.00 0.00 0.00 85 1021.5
20260902194541 65 0 0.0 0.0 0.00 0.00 0.00 85 1022.0
20260902193037 65 0 0.0 0.0 0.00 0.00 0.00 85 1022.0
20260902191535 65 0 0.0 0.0 0.00 0.00 0.00 86 1022.4
20260902190042 65 0 0.0 0.0 0.00 0.00 0.00 86 1022.4
20260902184538 65 0 0.0 0.0 0.00 0.00 0.00 85 1022.8
20260902183046 65 0 0.0 0.0 0.00 0.00 0.00 85 1022.6
20260902181535 65 0 0.0 0.0 0.00 0.00 0.00 85 1022.6
20260902180037 65 0 0.0 0.0 0.00 0.00 0.00 84 1022.5
20260902174538 64 0 0.0 0.0 0.00 0.00 0.00 85 1022.5
20260902173038 64 0 0.0 0.0 0.00 0.00 0.00 85 1022.5
20260902171542 63 0 0.0 0.0 0.00 0.00 0.00 85 1022.9
20260902170038 63 0 0.0 0.0 0.00 0.00 0.00 87 1022.9
20260902164549 63 0 0.0 0.0 0.00 0.01 0.00 85 1022.8
20260902163038 64 0 0.0 0.0 0.00 0.01 0.00 85 1022.7
20260902161541 65 0 0.0 0.0 0.00 0.01 0.00 84 1022.7
20260902160036 65 0 0.0 0.0 0.00 0.01 0.00 86 1023.2
20260902154557 64 0 0.0 1.0 0.00 0.01 0.00 82 1023.2
20260902153043 65 0 0.0 0.0 0.00 0.01 0.00 82 1023.3
20260902151536 65 0 0.0 0.0 0.00 0.01 0.00 83 1023.8
20260902150041 65 0 0.0 0.0 0.00 0.01 0.00 81 1023.7
20260902144546 66 0 0.0 0.0 0.00 0.01 0.00 80 1023.1
20260902143041 65 0 0.0 0.0 0.00 0.01 0.00 85 1023.3
20260902141535 63 0 0.0 2.0 0.00 0.01 0.00 85 1023.1
20260902140040 62 0 0.0 0.0 0.00 0.01 0.00 88 1023.1
20260902134539 62 0 0.0 0.0 0.00 0.05 0.00 85 1022.8
20260902133042 62 0 0.0 0.0 0.00 0.05 0.00 85 1022.6
20260902131536 61 0 0.0 0.0 0.00 0.05 0.00 89 1022.4
20260902130039 61 0 0.0 0.0 0.00 0.05 0.00 89 1022.4
20260902124536 60 0 0.0 0.0 0.00 0.21 0.00 95 1022.7
20260902123035 60 0 0.0 0.0 0.00 0.21 0.00 96 1022.7
20260902121539 59 0 0.0 0.0 0.00 0.21 0.00 96 1022.9
20260902120035 58 0 0.0 0.0 0.00 0.21 0.00 97 1022.6
20260902114540 58 0 0.0 0.0 0.00 0.36 0.00 99 1022.7
20260902113043 58 0 0.0 0.0 0.00 0.36 0.00 99 1022.7
20260902111538 57 0 0.0 0.0 0.00 0.36 0.00 99 1022.9
20260902110041 57 0 0.0 0.0 0.00 0.36 0.00 98 1022.9
20260902104546 57 0 0.0 0.0 0.00 0.38 0.00 98 1022.6
20260902103045 57 0 0.0 0.0 0.00 0.38 0.00 98 1022.5
20260902101544 57 0 0.0 0.0 0.00 0.38 0.00 98 1022.3
20260902100042 57 0 0.0 0.0 0.00 0.38 0.00 98 1022.1
20260902094537 57 0 0.0 0.0 0.00 0.38 0.00 98 1022.2
20260902093043 57 0 0.0 0.0 0.00 0.38 0.00 98 1022.2
20260902091550 57 0 0.0 0.0 0.00 0.38 0.00 98 1022.1
20260902090041 57 0 0.0 0.0 0.00 0.38 0.00 98 1021.9
20260902084549 57 0 0.0 0.0 0.00 0.38 0.00 98 1022.0
20260902083048 57 0 0.0 0.0 0.00 0.38 0.00 98 1022.1
20260902081540 58 0 0.0 0.0 0.00 0.38 0.00 97 1022.1
20260902080038 58 0 0.0 0.0 0.00 0.38 0.00 98 1022.1
20260902074538 58 0 0.0 0.0 0.00 0.38 0.00 97 1022.1
20260902073040 58 0 0.0 0.0 0.00 0.38 0.00 97 1022.2
20260902071539 58 0 0.0 0.0 0.00 0.38 0.00 97 1022.2
20260902070038 58 0 0.0 0.0 0.00 0.38 0.00 97 1022.4
20260902064541 58 0 0.0 0.0 0.00 0.38 0.00 97 1022.2
20260902063045 58 0 0.0 0.0 0.00 0.38 0.00 97 1022.1
20260902061547 58 0 0.0 0.0 0.00 0.38 0.00 97 1022.0
20260902060041 58 0 0.0 0.0 0.00 0.38 0.00 97 1021.7
20260902054541 58 0 0.0 0.0 0.00 0.38 0.00 97 1021.7
20260902053039 59 0 0.0 0.0 0.00 0.38 0.00 98 1021.4
20260902051537 59 0 0.0 0.0 0.00 0.38 0.00 98 1021.5
20260902044556 59 0 0.0 0.0 0.00 0.38 0.00 98 1021.1
20260902043037 60 0 0.0 0.0 0.00 0.38 0.00 98 1020.9
20260902041541 60 0 0.0 0.0 0.00 0.38 0.00 98 1020.6
20260902040050 60 0 0.0 0.0 0.00 0.38 0.00 98 1020.5
20260902034541 60 0 0.0 0.0 0.00 0.38 0.38 98 1020.5